Date String (YYYY-MM-DD hh:mm:ss) UTC,Instrument flags,Ambient pressure (hPa),Sample flow (lpm),Bypass flow (lpm),Sample temperature (°C),Ambient temperature (°C),ASC tube jacket temperature (°C),LED temperature (°C),Box temperature (°C),Sample RH (%),Span deviation,Mass concentration (μg/m³),Mass concentration (μg/m³),Mass concentration (μg/m³)
DateTimeUTC,F1_M11,P_M11,Q1_M11,Q2_M11,T1_M11,T2_M11,T3_M11,T4_M11,T5_M11,U1_M11,ZSPAN_M11,X0_M11,X2_M11,X1_M11
2023-02-26 03:00:00,,0822.0,5.00,0.00,22.9,21.3,00.0,31.7,24.7,14.9,0000.0,0011.37,0005.39,0004.65
2023-02-26 03:01:00,,0822.0,5.01,0.00,22.9,21.3,00.0,31.7,24.7,14.9,0000.0,0011.46,0005.44,0004.66
2023-02-26 03:02:00,,0822.0,5.01,0.00,22.9,21.2,00.0,31.7,24.6,15.0,0000.0,0012.16,0005.46,0004.68
2023-02-26 03:03:00,,0821.9,5.00,0.00,22.9,21.2,00.0,31.7,24.6,15.0,0000.0,0012.43,0005.47,0004.68
2023-02-26 03:04:00,,0821.8,4.99,0.00,22.9,21.2,00.0,31.7,24.6,14.9,0000.0,0013.51,0005.49,0004.69
2023-02-26 03:05:00,,0822.0,4.99,0.00,22.8,21.2,00.0,31.6,24.6,14.8,0000.0,0014.72,0005.47,0004.69
2023-02-26 03:06:00,,0822.1,5.00,0.00,22.8,21.2,00.0,31.6,24.6,14.9,0000.0,0014.87,0005.47,0004.71
2023-02-26 03:07:00,,0822.1,5.00,0.00,22.8,21.2,00.0,31.6,24.5,15.0,0000.0,0014.94,0005.49,0004.71
2023-02-26 03:08:00,,0822.2,5.00,0.00,22.8,21.2,00.0,31.6,24.5,14.9,0000.0,0014.38,0005.52,0004.71
2023-02-26 03:09:00,,0821.8,5.00,0.00,22.8,21.1,00.0,31.6,24.6,14.9,0000.0,0014.38,0005.49,0004.71
2023-02-26 03:10:00,,0821.8,5.00,0.00,22.8,21.1,00.0,31.6,24.5,14.9,0000.0,0014.55,0005.52,0004.73
2023-02-26 03:11:00,,0821.8,5.01,0.00,22.8,21.1,00.0,31.6,24.5,15.1,0000.0,0014.93,0005.51,0004.73
2023-02-26 03:12:00,,0821.9,5.00,0.00,22.8,21.1,00.0,31.6,24.5,15.0,0000.0,0015.53,0005.47,0004.73
2023-02-26 03:13:00,,0821.8,4.99,0.00,22.7,21.0,00.0,31.6,24.4,14.9,0000.0,0015.50,0005.43,0004.72
2023-02-26 03:14:00,,0821.8,5.00,0.00,22.7,20.9,00.0,31.5,24.3,15.1,0000.0,0015.31,0005.41,0004.72
2023-02-26 03:15:00,,0821.8,4.98,0.00,22.6,20.7,00.0,31.5,24.2,15.0,0000.0,0014.75,0005.40,0004.70
2023-02-26 03:16:00,,0821.8,5.00,0.00,22.5,20.6,00.0,31.4,24.1,15.0,0000.0,0013.98,0005.41,0004.69
2023-02-26 03:17:00,,0821.8,5.00,0.00,22.5,20.5,00.0,31.4,24.1,15.1,0000.0,0013.72,0005.38,0004.66
2023-02-26 03:18:00,,0821.8,4.98,0.00,22.4,20.4,00.0,31.4,24.0,15.0,0000.0,0013.56,0005.37,0004.64
2023-02-26 03:19:00,,0821.8,5.00,0.00,22.4,20.3,00.0,31.3,23.9,14.9,0000.0,0013.00,0005.31,0004.59
2023-02-26 03:20:00,,0821.8,5.01,0.00,22.3,20.3,00.0,31.3,23.9,14.8,0000.0,0012.30,0005.25,0004.53
2023-02-26 03:21:00,,0821.7,4.99,0.00,22.3,20.1,00.0,31.3,23.8,14.8,0000.0,0012.11,0005.18,0004.47
2023-02-26 03:22:00,,0821.7,5.01,0.00,22.2,20.1,00.0,31.2,23.8,14.7,0000.0,0012.49,0005.11,0004.38
2023-02-26 03:23:00,,0821.7,5.00,0.00,22.2,20.1,00.0,31.2,23.8,14.8,0000.0,0012.23,0005.05,0004.29
2023-02-26 03:24:00,,0821.7,4.99,0.00,22.2,20.1,00.0,31.2,23.8,14.9,0000.0,0011.87,0005.03,0004.24
2023-02-26 03:25:00,,0821.8,5.00,0.00,22.1,20.0,00.0,31.1,23.7,15.0,0000.0,0011.64,0004.97,0004.18
2023-02-26 03:26:00,,0821.7,5.01,0.00,22.1,20.0,00.0,31.1,23.7,15.1,0000.0,0011.52,0004.94,0004.15
2023-02-26 03:27:00,,0821.7,5.01,0.00,22.0,19.9,00.0,31.1,23.6,15.0,0000.0,0010.86,0004.90,0004.11
2023-02-26 03:28:00,,0821.7,5.00,0.00,22.0,20.0,00.0,31.0,23.6,15.1,0000.0,0010.81,0004.90,0004.09
2023-02-26 03:29:00,,0821.8,5.00,0.00,22.0,19.9,00.0,31.0,23.6,14.8,0000.0,0010.65,0004.86,0004.04
2023-02-26 03:30:00,,0821.7,5.00,0.00,21.9,19.9,00.0,31.0,23.5,14.5,0000.0,0010.46,0004.76,0003.95
2023-02-26 03:31:00,,0821.7,4.99,0.00,21.9,19.9,00.0,30.9,23.5,14.4,0000.0,0010.37,0004.70,0003.90
2023-02-26 03:32:00,,0821.7,5.00,0.00,21.9,19.9,00.0,30.9,23.5,14.5,0000.0,0010.84,0004.57,0003.80
2023-02-26 03:33:00,,0821.6,4.99,0.00,21.9,19.9,00.0,30.9,23.5,14.8,0000.0,0010.29,0004.55,0003.79
2023-02-26 03:34:00,,0821.7,5.00,0.00,21.9,20.0,00.0,30.8,23.5,15.0,0000.0,0010.06,0004.55,0003.80
2023-02-26 03:35:00,,0821.7,5.00,0.00,21.9,20.0,00.0,30.8,23.6,15.2,0000.0,0010.51,0004.55,0003.81
2023-02-26 03:36:00,,0821.7,4.99,0.00,21.9,20.1,00.0,30.8,23.6,14.9,0000.0,0010.69,0004.55,0003.80
2023-02-26 03:37:00,,0821.6,5.00,0.00,21.9,20.1,00.0,30.8,23.6,14.7,0000.0,0010.41,0004.49,0003.75
2023-02-26 03:38:00,,0821.6,5.00,0.00,21.9,20.2,00.0,30.8,23.6,14.7,0000.0,0010.28,0004.42,0003.70
2023-02-26 03:39:00,,0821.7,5.01,0.00,21.9,20.2,00.0,30.8,23.7,14.7,0000.0,0010.25,0004.38,0003.64
2023-02-26 03:40:00,,0821.6,5.01,0.00,21.9,20.3,00.0,30.8,23.7,15.1,0000.0,0010.07,0004.30,0003.61
2023-02-26 03:41:00,,0821.6,5.02,0.00,21.9,20.3,00.0,30.8,23.7,15.3,0000.0,0010.22,0004.38,0003.66
2023-02-26 03:42:00,,0821.6,4.98,0.00,21.9,20.4,00.0,30.8,23.8,15.6,0000.0,0010.42,0004.43,0003.71
2023-02-26 03:43:00,,0821.6,5.00,0.00,22.0,20.4,00.0,30.8,23.7,15.2,0000.0,0010.42,0004.53,0003.78
2023-02-26 03:44:00,,0821.5,4.99,0.00,22.0,20.4,00.0,30.8,23.7,15.1,0000.0,0010.18,0004.53,0003.79
2023-02-26 03:45:00,,0821.5,5.00,0.00,22.0,20.4,00.0,30.8,23.8,14.8,0000.0,0010.08,0004.52,0003.78
2023-02-26 03:46:00,,0821.4,5.02,0.00,22.0,20.5,00.0,30.8,23.8,14.6,0000.0,0009.60,0004.47,0003.73
2023-02-26 03:47:00,,0821.4,5.00,0.00,22.0,20.5,00.0,30.8,23.7,15.1,0000.0,0009.04,0004.44,0003.69
2023-02-26 03:48:00,,0821.4,5.00,0.00,22.0,20.5,00.0,30.8,23.7,15.5,0000.0,0009.13,0004.46,0003.71
2023-02-26 03:49:00,,0821.4,5.00,0.00,22.0,20.6,00.0,30.8,23.8,15.5,0000.0,0009.10,0004.46,0003.75
2023-02-26 03:50:00,,0821.4,4.98,0.00,22.0,20.5,00.0,30.8,23.7,15.5,0000.0,0009.27,0004.43,0003.76
2023-02-26 03:51:00,,0821.4,5.01,0.00,22.0,20.5,00.0,30.8,23.7,15.4,0000.0,0009.23,0004.42,0003.78
2023-02-26 03:52:00,,0821.4,5.00,0.00,22.0,20.5,00.0,30.8,23.8,15.5,0000.0,0009.11,0004.38,0003.77
2023-02-26 03:53:00,,0821.4,5.00,0.00,22.0,20.4,00.0,30.8,23.8,15.9,0000.0,0008.92,0004.34,0003.74
2023-02-26 03:54:00,,0821.3,5.00,0.00,22.0,20.4,00.0,30.8,23.8,15.7,0000.0,0008.55,0004.30,0003.72
2023-02-26 03:55:00,,0821.4,5.00,0.00,22.0,20.5,00.0,30.8,23.8,15.3,0000.0,0008.15,0004.30,0003.71
2023-02-26 03:56:00,,0821.4,5.01,0.00,22.0,20.4,00.0,30.8,23.8,15.2,0000.0,0008.07,0004.27,0003.70
2023-02-26 03:57:00,,0821.4,4.98,0.00,22.0,20.4,00.0,30.8,23.8,15.0,0000.0,0008.08,0004.27,0003.71
2023-02-26 03:58:00,,0821.4,4.99,0.00,22.0,20.4,00.0,30.8,23.7,14.9,0000.0,0008.18,0004.25,0003.69
2023-02-26 03:59:00,,0821.4,5.00,0.00,22.0,20.4,00.0,30.8,23.7,15.0,0000.0,0008.06,0004.21,0003.64
